Weather History for KSLE - October, 2010

Change the Weather History Date:

Sunday, October 24, 2010

  Actual Average Record
Temperature  
Mean Temperature 52 °F 51 °F  
Max Temperature 57 °F 60 °F 76 °F (1900)
Min Temperature 47 °F 41 °F 28 °F (1935)
Degree Days  
Heating Degree Days 13 14  
Month to date heating degree days 212 259  
Since 1 July heating degree days 359 424  
Cooling Degree Days 0 0  
Month to date cooling degree days 0 0  
Year to date cooling degree days 291 289  
Growing Degree Days 2 (Base 50)    
Moisture  
Dew Point 48 °F    
Average Humidity 82    
Maximum Humidity 93    
Minimum Humidity 71    
Precipitation  
Precipitation 0.69 in 0.13 in 1.34 in (1943)
Month to date precipitation 2.81 2.05  
Year to date precipitation 30.64 25.33  
Snow  
Snow 0.00 in - - ()
Month to date snowfall 0.0  
Snow Depth 0.00 in    
Sea Level Pressure  
Sea Level Pressure 29.50 in    
Wind  
Wind Speed 14 mph (SSW)    
Max Wind Speed 26 mph    
Max Gust Speed 41 mph    
Visibility 9 miles    
Events Rain , Thunderstorm    
T = Trace of Precipitation, MM = Missing Value Source: NWS Daily Summary

Daily Weather History Graph

Daily Weather History Graph

Search for Another Location

Airport or City:

Trip Planner

Search our weather history database for the weather conditions in past years. The results will help you decide how hot, cold, wet, or windy it might be!

Date:

Astronomy

Oct. 24, 2010 Rise Set
Actual Time 7:39 AM PDT 6:12 PM PDT
Civil Twilight 7:09 AM PDT 6:42 PM PDT
Nautical Twilight 6:35 AM PDT 7:16 PM PDT
Astronomical Twilight 6:01 AM PDT 7:50 PM PDT
Moon 6:49 PM PDT (10/24) 9:35 AM PDT (10/24)
Length of Visible Light 11h 32m
Length of Day
10h 32m
Full, 97% of the Moon is Illuminated
Oct 24
Full
Oct 30
Last Quarter
Nov 5
New
Nov 13
First Quarter
Nov 21
Full

Hourly Weather History & Observations

Time (PDT) Temp. Dew Point Humidity Pressure Visibility Wind Dir Wind Speed Gust Speed Precip Events Conditions
12:56 AM 53.1 °F 51.1 °F 93% 29.44 in 8.0 mi SSE 12.7 mph - 0.12 in Rain Light Rain
1:23 AM 53.6 °F 51.8 °F 94% 29.44 in 5.0 mi SSW 9.2 mph - 0.04 in Rain Heavy Rain
1:56 AM 53.1 °F 51.1 °F 93% 29.43 in 8.0 mi SSE 13.8 mph - 0.18 in Rain Light Rain
2:48 AM 53.6 °F 51.8 °F 94% 29.43 in 10.0 mi South 16.1 mph 26.5 mph 0.01 in   Overcast
2:56 AM 54.0 °F 52.0 °F 93% 29.43 in 10.0 mi South 17.3 mph 23.0 mph 0.01 in   Overcast
3:45 AM 53.6 °F 51.8 °F 94% 29.45 in 10.0 mi South 16.1 mph 21.9 mph N/A   Mostly Cloudy
3:51 AM 53.6 °F 51.8 °F 94% 29.44 in 10.0 mi South 12.7 mph - N/A   Scattered Clouds
3:56 AM 54.0 °F 52.0 °F 93% 29.44 in 10.0 mi South 15.0 mph - N/A   Partly Cloudy
4:56 AM 55.0 °F 52.0 °F 89% 29.41 in 10.0 mi South 10.4 mph - N/A   Clear
5:56 AM 55.9 °F 53.1 °F 90% 29.41 in 6.0 mi South 13.8 mph - 0.04 in Rain Rain
6:56 AM 55.0 °F 51.1 °F 86% 29.42 in 10.0 mi SW 10.4 mph - 0.08 in Rain Light Rain
7:56 AM 54.0 °F 50.0 °F 86% 29.43 in 10.0 mi South 11.5 mph - 0.00 in   Scattered Clouds
8:56 AM 53.1 °F 48.0 °F 83% 29.44 in 5.0 mi WSW 9.2 mph 19.6 mph 0.05 in Rain Rain
9:03 AM 53.6 °F 48.2 °F 82% 29.45 in 6.0 mi SW 12.7 mph 18.4 mph 0.01 in Rain Light Rain
9:11 AM 53.6 °F 48.2 °F 82% 29.46 in 6.0 mi SW 12.7 mph - 0.01 in Rain Rain
9:56 AM 53.1 °F 46.9 °F 80% 29.47 in 10.0 mi SSW 15.0 mph - 0.09 in   Mostly Cloudy
10:56 AM 52.0 °F 48.0 °F 86% 29.47 in 6.0 mi South 16.1 mph 25.3 mph 0.02 in Rain Rain
11:56 AM 57.0 °F 48.0 °F 72% 29.48 in 10.0 mi SW 17.3 mph 26.5 mph 0.00 in   Mostly Cloudy
12:56 PM 51.1 °F 44.1 °F 77% 29.53 in 5.0 mi West 21.9 mph 28.8 mph 0.05 in Rain , Thunderstorm Thunderstorms and Rain
1:56 PM 53.1 °F 45.0 °F 74% 29.51 in 10.0 mi SW 16.1 mph 27.6 mph 0.05 in Rain , Thunderstorm Thunderstorms and Rain
2:03 PM 53.6 °F 46.4 °F 77% 29.51 in 10.0 mi SSW 12.7 mph 23.0 mph N/A   Mostly Cloudy
2:56 PM 51.1 °F 45.0 °F 80% 29.53 in 10.0 mi SSW 9.2 mph - 0.05 in   Mostly Cloudy
3:56 PM 53.1 °F 46.0 °F 77% 29.54 in 10.0 mi SSW 8.1 mph - 0.00 in   Mostly Cloudy
4:56 PM 53.1 °F 45.0 °F 74% 29.55 in 10.0 mi SSE 12.7 mph 19.6 mph N/A   Mostly Cloudy
5:56 PM 51.1 °F 44.1 °F 77% 29.57 in 6.0 mi South 15.0 mph 21.9 mph 0.01 in Rain Rain
6:56 PM 50.0 °F 44.1 °F 80% 29.58 in 10.0 mi South 15.0 mph - 0.00 in   Mostly Cloudy
7:56 PM 48.9 °F 43.0 °F 80% 29.61 in 10.0 mi South 15.0 mph 21.9 mph N/A   Mostly Cloudy
8:56 PM 50.0 °F 44.1 °F 80% 29.66 in 10.0 mi South 13.8 mph - 0.00 in Rain Light Rain
9:56 PM 48.0 °F 44.1 °F 86% 29.67 in 10.0 mi South 15.0 mph 20.7 mph 0.02 in   Mostly Cloudy
10:56 PM 48.0 °F 44.1 °F 86% 29.70 in 7.0 mi South 16.1 mph 25.3 mph 0.01 in Rain Rain
11:56 PM 48.0 °F 43.0 °F 83% 29.71 in 10.0 mi South 13.8 mph - 0.04 in   Overcast